This demonstration page uses our WeatherBlox Daily Observations layout. Learn more.

Hourly Observations for December 23, 2019

Temp ( °F °C ) Dew Point ( °F °C ) Humidity (%) Winds ( mph kmh ) Pressure ( in mb ) Visibility ( mi km ) Precip ( " mm )
12:54 am 00:54 Clear 34 1.1 29 -1.7 82 82 S 7 11 30.02 1017 10 16.0934 0 0
1:54 am 01:54 Clear 32 0 27 -2.8 82 82 S 8 13 30.02 1017 10 16.0934 0 0
2:54 am 02:54 Clear 34 1.1 29 -1.7 82 82 SSW 7 11 30.03 1017 10 16.0934 0 0
3:54 am 03:54 Clear 32 0 28 -2.2 85 85 SSW 3 6 30.02 1017 10 16.0934 0 0
4:54 am 04:54 Clear 31 -0.6 28 -2.2 89 89 Calm 30.03 1017 8 12.87472 0 0
5:54 am 05:54 Clear 29 -1.7 27 -2.8 92 92 SSE 5 7 30.03 1017 8 12.87472 0 0
6:54 am 06:54 Clear with Mist and Fog 30 -1.1 27 -2.8 88 88 SSW 3 6 30.05 1018 6 9.65604 0 0
7:54 am 07:54 Sunny 28 -2.2 25 -3.9 88 88 SSW 3 6 30.06 1018 4 6.43736 0 0
8:54 am 08:54 Sunny 29 -1.7 27 -2.8 92 92 S 5 7 30.07 1018 4 6.43736 0 0
9:54 am 09:54 Sunny 36 2.2 32 0 86 86 S 8 13 30.06 1018 5 8.0467 0 0
10:54 am 10:54 Sunny 43 6.1 34 1.1 71 71 S 7 11 30.05 1018 10 16.0934 0 0
11:54 am 11:54 Sunny 48 8.9 33 0.6 56 56 SSW 5 7 30.02 1017 10 16.0934 0 0
12:54 pm 12:54 Sunny 52 11.1 33 0.6 49 49 SSE 6 9 29.99 1016 10 16.0934 0 0
1:54 pm 13:54 Sunny 52 11.1 34 1.1 50 50 SE 8 13 29.96 1015 10 16.0934 0 0
2:54 pm 14:54 Sunny 55 12.8 34 1.1 45 45 S 14 22 29.94 1014 10 16.0934 0 0
3:54 pm 15:54 Sunny 53 11.7 34 1.1 48 48 SSE 10 17 29.93 1014 10 16.0934 0 0
4:54 pm 16:54 Sunny 45 7.2 32 0 61 61 SSE 8 13 29.93 1014 10 16.0934 0 0
5:54 pm 17:54 Clear 41 5 32 0 70 70 NNW 3 6 29.95 1014 10 16.0934 0 0
6:54 pm 18:54 Clear 34 1.1 28 -2.2 79 79 N 6 9 29.96 1015 10 16.0934 0 0
7:54 pm 19:54 Clear 37 2.8 29 -1.7 73 73 SSE 3 6 29.95 1014 10 16.0934 0 0
8:54 pm 20:54 Clear 36 2.2 29 -1.7 76 76 Calm 29.94 1014 10 16.0934 0 0
9:54 pm 21:54 Clear 29 -1.7 25 -3.9 85 85 Calm 29.93 1014 9 14.48406 0 0
10:54 pm 22:54 Clear 31 -0.6 26 -3.3 82 82 Calm 29.93 1013 10 16.0934 0 0
11:54 pm 23:54 Clear 32 0 27 -2.8 82 82 Calm 29.92 1013 7 11.26538 0 0

Powered by AerisWeather